Oxon Hill, MD

6:16 AM EDT on July 25, 2016 (GMT -0400)
Stonegate Estates | | Change Station
Active Advisory: Heat Advisory

Elev 217 ft 38.79 °N, 76.95 °W | Updated 0 second ago

Mostly Cloudy
Mostly Cloudy
77.0 °F
Feels Like 78 °F
N
0.0
Wind Variable Wind from WSW

Today
High -- | Low -- °F
--% Chance of Precip.
Yesterday
High -- | Low -- °F
Precip. -- in
Pressure 29.95 in
Visibility 10.0 miles
Clouds Few 7000 ft
Mostly Cloudy 15000 ft
Mostly Cloudy 25000 ft
Heat Index 78 °F
Dew Point 73 °F
Humidity 87%
Rainfall 0.00 in
Snow Depth Not available.
6:03 AM 8:24 PM
Waning Gibbous, 67% visible
METAR KDCA 250952Z 20004KT 10SM FEW070 BKN150 BKN250 28/25 A2995 RMK AO2 SLP142 T02780250
Pressure 29.95 in
Visibility 10.0 miles
Clouds Few 7000 ft
Mostly Cloudy 15000 ft
Mostly Cloudy 25000 ft
Heat Index 78 °F
Dew Point 73 °F
Humidity 87%
Rainfall 0.00 in
Snow Depth Not available.
6:03 AM 8:24 PM
Waning Gibbous, 67% visible
METAR KDCA 250952Z 20004KT 10SM FEW070 BKN150 BKN250 28/25 A2995 RMK AO2 SLP142 T02780250

10-Day Weather Forecast

Almanac

Astronomy

Jul. 25, 2016 Rise Set
Actual Time
Civil Twilight
Nautical Twilight
Astronomical Twilight
Moon
Length of Visible Light
Length of Day
Tomorrow will be .
, % of the Moon is Illuminated

Today's Extremes

State Highs State Lows

Community

WunderPhotos

Upload Photos

1,927,291 photos uploaded!

WunderBlog® & News

Nearby

Air Quality

  Air Quality AQ Index Pollutant
Not available.

Snow Depth

Station Depth Elevation

Earthquake Activity

City Distance Mag. Time & Date
Minimum magnitude displayed is 2.5.

Coastal Water Temperatures

Place Temperature

Stations

Nearby Weather Stations

Station Location Temp. Windchill Dew Point Humidity Wind Precip. Elev Updated Type
                   

Watches & Warnings

Heat Advisory
Issued: 4:44 AM EDT Jul. 25, 2016 – National Weather Service

... Heat advisory remains in effect from noon today to 8 PM EDT
this evening...

* heat index values... up to 108 due to temperatures between 95 to
100... and dewpoints in the lower 70s.

* Impacts... risk of heat-related illness for those without air-
conditioning or those outdoors for an extended period.

Precautionary/preparedness actions...

A heat advisory means that a period of high temperatures is
expected. The combination of high temperatures and high humidity
will create a situation in which heat illnesses are possible.

Take extra precautions if you work or spend time outside. When
possible... reschedule strenuous activities to early morning or
evening. Know the signs and symptoms of heat exhaustion and heat
stroke. Wear light weight and loose fitting clothing when
possible and drink plenty of water.

To reduce risk during outdoor work... the occupational safety and
health administration recommends scheduling frequent rest breaks
in shaded or air conditioned environments. Anyone overcome by
heat should be moved to a cool and shaded location. Heat stroke
is an emergency - call 911.